TimeEST,TemperatureF,Dew PointF,Humidity,Sea Level PressureIn,VisibilityMPH,Wind Direction,Wind SpeedMPH,Gust SpeedMPH,PrecipitationIn,Events,Conditions,WindDirDegrees,DateUTC
12:15 AM,54.7,49.6,83,30.15,10.0,Calm,Calm,-,N/A,,Clear,0,2012-12-05 05:15:00
12:35 AM,54.5,50.0,85,30.14,10.0,Calm,Calm,-,N/A,,Scattered Clouds,0,2012-12-05 05:35:00
12:55 AM,55.4,50.0,82,30.14,10.0,SW,3.5,-,N/A,,Scattered Clouds,230,2012-12-05 05:55:00
1:15 AM,54.7,50.2,85,30.14,10.0,WSW,3.5,-,N/A,,Clear,240,2012-12-05 06:15:00
1:35 AM,55.8,50.5,83,30.14,10.0,Calm,Calm,-,N/A,,Scattered Clouds,0,2012-12-05 06:35:00
1:55 AM,55.4,50.4,83,30.14,10.0,WSW,3.5,-,N/A,,Clear,250,2012-12-05 06:55:00
2:15 AM,55.0,50.4,84,30.13,10.0,Calm,Calm,-,N/A,,Clear,0,2012-12-05 07:15:00
2:55 AM,52.2,49.3,90,30.13,10.0,Calm,Calm,-,N/A,,Clear,0,2012-12-05 07:55:00
3:15 AM,52.2,49.3,90,30.13,10.0,Calm,Calm,-,N/A,,Clear,0,2012-12-05 08:15:00
3:35 AM,52.3,49.8,91,30.12,10.0,Calm,Calm,-,N/A,,Mostly Cloudy,0,2012-12-05 08:35:00
3:55 AM,52.5,49.6,90,30.12,10.0,SSW,3.5,-,N/A,,Overcast,210,2012-12-05 08:55:00
4:15 AM,54.1,50.5,88,30.11,10.0,Calm,Calm,-,N/A,,Overcast,0,2012-12-05 09:15:00
4:35 AM,54.5,51.1,88,30.11,10.0,Calm,Calm,-,N/A,,Overcast,0,2012-12-05 09:35:00
4:55 AM,54.5,50.9,88,30.10,10.0,Calm,Calm,-,N/A,,Overcast,0,2012-12-05 09:55:00
5:15 AM,54.9,51.1,87,30.11,10.0,SW,3.5,-,N/A,,Mostly Cloudy,220,2012-12-05 10:15:00
5:35 AM,55.4,51.4,87,30.11,10.0,Calm,Calm,-,N/A,,Mostly Cloudy,0,2012-12-05 10:35:00
5:55 AM,56.3,52.0,85,30.11,10.0,Calm,Calm,-,N/A,,Mostly Cloudy,0,2012-12-05 10:55:00
6:15 AM,56.5,52.2,85,30.12,10.0,Calm,Calm,-,N/A,,Overcast,0,2012-12-05 11:15:00
6:35 AM,56.7,52.3,85,30.12,10.0,Calm,Calm,-,N/A,,Overcast,0,2012-12-05 11:35:00
6:55 AM,56.5,52.3,86,30.13,10.0,SW,3.5,-,N/A,,Overcast,230,2012-12-05 11:55:00
7:15 AM,56.7,52.7,87,30.13,10.0,WSW,4.6,-,N/A,,Overcast,250,2012-12-05 12:15:00
7:35 AM,57.2,53.1,86,30.14,10.0,WSW,3.5,-,N/A,,Overcast,250,2012-12-05 12:35:00
7:55 AM,57.6,53.2,85,30.15,10.0,Calm,Calm,-,N/A,,Overcast,0,2012-12-05 12:55:00
9:35 AM,57.6,55.0,91,30.19,10.0,Calm,Calm,-,N/A,,Overcast,0,2012-12-05 14:35:00
9:55 AM,59.2,50.7,74,30.19,10.0,Calm,Calm,-,N/A,,Overcast,0,2012-12-05 14:55:00
10:15 AM,59.4,49.1,69,30.20,10.0,Calm,Calm,-,N/A,,Overcast,0,2012-12-05 15:15:00
10:35 AM,59.9,47.5,64,30.20,10.0,NNW,5.8,-,N/A,Rain,Light Rain,340,2012-12-05 15:35:00
10:55 AM,58.3,48.2,69,30.20,10.0,NNW,3.5,-,N/A,Rain,Light Rain,340,2012-12-05 15:55:00
11:15 AM,58.8,47.7,66,30.20,10.0,NNW,3.5,-,N/A,Rain,Light Rain,330,2012-12-05 16:15:00
11:35 AM,58.8,46.0,63,30.19,10.0,North,3.5,-,N/A,,Overcast,10,2012-12-05 16:35:00
11:55 AM,59.0,45.1,60,30.19,10.0,Calm,Calm,-,N/A,,Overcast,0,2012-12-05 16:55:00
12:15 PM,59.7,44.2,57,30.18,10.0,North,3.5,-,N/A,,Overcast,10,2012-12-05 17:15:00
12:35 PM,60.1,42.8,53,30.17,10.0,Calm,Calm,-,N/A,,Mostly Cloudy,0,2012-12-05 17:35:00
12:55 PM,59.9,40.8,49,30.17,10.0,North,3.5,-,N/A,,Overcast,350,2012-12-05 17:55:00
1:15 PM,59.9,39.6,47,30.17,10.0,North,3.5,-,N/A,,Light Drizzle,360,2012-12-05 18:15:00
1:35 PM,59.0,38.3,46,30.16,10.0,Calm,Calm,-,N/A,,Overcast,0,2012-12-05 18:35:00
1:55 PM,59.7,37.6,44,30.16,10.0,North,3.5,-,N/A,,Overcast,10,2012-12-05 18:55:00
2:15 PM,60.1,36.7,42,30.16,10.0,NNE,3.5,-,N/A,,Mostly Cloudy,20,2012-12-05 19:15:00
2:35 PM,61.5,35.6,38,30.16,10.0,North,3.5,-,N/A,,Mostly Cloudy,350,2012-12-05 19:35:00
2:55 PM,60.6,33.8,37,30.16,10.0,NNE,4.6,-,N/A,,Overcast,30,2012-12-05 19:55:00
3:15 PM,60.8,33.4,36,30.16,10.0,North,3.5,-,N/A,,Scattered Clouds,360,2012-12-05 20:15:00
3:35 PM,61.2,32.5,34,30.16,10.0,Calm,Calm,-,N/A,,Scattered Clouds,0,2012-12-05 20:35:00
3:55 PM,61.3,32.4,34,30.16,10.0,Calm,Calm,-,N/A,,Mostly Cloudy,0,2012-12-05 20:55:00
4:15 PM,60.3,32.5,35,30.16,10.0,Calm,Calm,-,N/A,,Overcast,0,2012-12-05 21:15:00
4:35 PM,56.1,35.8,46,30.17,10.0,Calm,Calm,-,N/A,,Mostly Cloudy,0,2012-12-05 21:35:00
4:55 PM,52.7,36.9,55,30.17,10.0,Calm,Calm,-,N/A,,Scattered Clouds,0,2012-12-05 21:55:00
5:15 PM,49.8,36.3,60,30.18,10.0,Calm,Calm,-,N/A,,Clear,0,2012-12-05 22:15:00
5:35 PM,46.8,35.8,66,30.18,10.0,Calm,Calm,-,N/A,,Clear,0,2012-12-05 22:35:00
5:55 PM,43.7,34.7,71,30.19,10.0,Calm,Calm,-,N/A,,Clear,0,2012-12-05 22:55:00
6:15 PM,42.3,34.9,75,30.19,10.0,Calm,Calm,-,N/A,,Clear,0,2012-12-05 23:15:00
6:35 PM,39.9,34.3,80,30.19,10.0,Calm,Calm,-,N/A,,Clear,0,2012-12-05 23:35:00
6:55 PM,39.6,33.1,78,30.20,10.0,NNW,3.5,-,N/A,,Clear,340,2012-12-05 23:55:00
7:15 PM,50.5,26.4,39,30.20,10.0,NNW,3.5,-,N/A,,Clear,330,2012-12-06 00:15:00
7:35 PM,51.1,25.0,36,30.21,10.0,NNW,4.6,-,N/A,,Clear,340,2012-12-06 00:35:00
7:55 PM,50.9,24.8,36,30.21,10.0,Calm,Calm,-,N/A,,Clear,0,2012-12-06 00:55:00
8:15 PM,48.6,25.9,41,30.21,10.0,Calm,Calm,-,N/A,,Clear,0,2012-12-06 01:15:00
8:35 PM,48.6,25.3,40,30.21,10.0,Calm,Calm,-,N/A,,Clear,0,2012-12-06 01:35:00
8:55 PM,48.6,25.5,41,30.21,10.0,Calm,Calm,-,N/A,,Clear,0,2012-12-06 01:55:00
9:15 PM,41.9,27.5,57,30.22,10.0,Calm,Calm,-,N/A,,Clear,0,2012-12-06 02:15:00
9:35 PM,42.6,27.1,54,30.22,10.0,Calm,Calm,-,N/A,,Clear,0,2012-12-06 02:35:00
9:55 PM,38.5,28.4,67,30.22,10.0,Calm,Calm,-,N/A,,Clear,0,2012-12-06 02:55:00
10:15 PM,34.9,29.7,81,30.22,10.0,Calm,Calm,-,N/A,,Clear,0,2012-12-06 03:15:00
10:35 PM,38.7,29.1,69,30.22,10.0,Calm,Calm,-,N/A,,Clear,0,2012-12-06 03:35:00
10:55 PM,32.9,28.8,85,30.22,10.0,Calm,Calm,-,N/A,,Clear,0,2012-12-06 03:55:00
11:15 PM,33.3,29.1,85,30.21,10.0,Calm,Calm,-,N/A,,Clear,0,2012-12-06 04:15:00
11:35 PM,31.5,27.7,86,30.22,10.0,Calm,Calm,-,N/A,,Clear,0,2012-12-06 04:35:00
11:55 PM,31.1,28.2,89,30.22,10.0,Calm,Calm,-,N/A,,Clear,0,2012-12-06 04:55:00